sat.trackr.live / text

‹ back to catalog

STARLINK-5136

NORAD 56414 · 2023-061AS

PAYLOAD ACTIVE UNKNOWN

§ Identity

Operator
Country
US
Launch date
2023-05-04
Launch site
AFETR
Launch vehicle
Mass (kg)
RCS (m²)

Purposes: comms

External: N2YO · Heavens-Above · Gunter

§ Orbital elements

Epoch: 2026-05-25T04:35:01.764096Z

Period
94.27 min
Inclination
43.0031°
Eccentricity
0.0001166
Mean motion
15.27566729 rev/d
Perigee alt
482.3 km
Apogee alt
483.9 km
Semi-major
6,861.2 km
B*
2.5815e-5
RAAN
115.0577°
Arg perigee
267.9300°
Mean anomaly
92.1418°
Rev number
16,857

§ Raw data

STARLINK-51361 56414U 23061AS  26145.19099264  .00000448  00000+0  25815-4 0  99902 56414  43.0031 115.0577 0001166 267.9300  92.1418 15.27566729168572

JSON: /api/v1/satellites/56414 · /tle

For live sub-satellite position, see the globe view (requires WebGL).

§ Visibility from observer

Set your observer location to see the next 7 days of passes ≥ 10°. The values pass through the URL so the page stays shareable.

No JS? Fill the form by hand. The geolocation button needs JavaScript.